Location: Bay Ridge
(40.6340°N, 74.0146°W)
Time: 15:17:46
(UTC+00:00)

ADEOS Rocket - Pass Details

Date: 15 November 2019
Orbit: 858 x 1307 km, 98.7° (Epoch: 14 December)

Event Time Altitude Azimuth Distance (km) Brightness Sun altitude
Rises 11:01:25 0° 149° (SSE) 4,276 7.2 -8.1°
Reaches altitude 10° 11:04:10 10° 146° (SE) 3,317 6.6 -7.6°
Maximum altitude 11:11:42 57° 70° (ENE) 1,495 4.3 -6.3°
Drops below altitude 10° 11:19:01 10° 355° (N) 3,218 5.5 -5.0°
Sets 11:21:39 0° 351° (N) 4,141 6.0 -4.5°
